Time,TemperatureF,DewpointF,PressureIn,WindDirection,WindDirectionDegrees,WindSpeedMPH,WindSpeedGustMPH,Humidity,HourlyPrecipIn,Conditions,Clouds,dailyrainin,SolarRadiationWatts/m^2,SoftwareType,DateUTC
2013-02-15 00:11:00,50.0,47.0,-100.00,NE,41,1.0,3.0,91,0.00,,,0.00,0.000000,,2013-02-15 07:11:00,
2013-02-15 00:21:00,50.0,47.0,-100.00,NE,41,1.0,3.0,91,0.00,,,0.00,0.000000,,2013-02-15 07:21:00,
2013-02-15 00:31:00,50.0,47.0,-100.00,NE,41,1.0,3.0,91,0.00,,,0.00,0.000000,,2013-02-15 07:31:00,
2013-02-15 00:42:00,50.0,47.0,-100.00,NE,41,1.0,3.0,91,0.00,,,0.00,0.000000,,2013-02-15 07:42:00,
2013-02-15 00:52:00,50.0,47.0,-100.00,NE,41,1.0,3.0,91,0.00,,,0.00,0.000000,,2013-02-15 07:52:00,
2013-02-15 01:11:00,49.0,47.0,-100.00,NNE,29,0.0,3.0,93,0.00,,,0.00,0.000000,,2013-02-15 08:11:00,
2013-02-15 01:21:00,49.0,47.0,-100.00,NNE,29,0.0,3.0,93,0.00,,,0.00,0.000000,,2013-02-15 08:21:00,
2013-02-15 01:32:00,49.0,47.0,-100.00,NNE,29,0.0,3.0,93,0.00,,,0.00,0.000000,,2013-02-15 08:32:00,
2013-02-15 01:42:00,49.0,47.0,-100.00,NNE,29,0.0,3.0,93,0.00,,,0.00,0.000000,,2013-02-15 08:42:00,
2013-02-15 01:52:00,49.0,47.0,-100.00,NNE,29,0.0,3.0,93,0.00,,,0.00,0.000000,,2013-02-15 08:52:00,
2013-02-15 02:12:00,49.0,48.0,-100.00,North,4,3.0,4.0,95,0.00,,,0.00,0.000000,,2013-02-15 09:12:00,
2013-02-15 02:21:00,49.0,48.0,-100.00,North,4,3.0,4.0,95,0.00,,,0.00,0.000000,,2013-02-15 09:21:00,
2013-02-15 02:32:00,49.0,48.0,-100.00,North,4,3.0,4.0,95,0.00,,,0.00,0.000000,,2013-02-15 09:32:00,
2013-02-15 02:42:00,49.0,48.0,-100.00,North,4,3.0,4.0,95,0.00,,,0.00,0.000000,,2013-02-15 09:42:00,
2013-02-15 02:51:00,49.0,48.0,-100.00,North,4,3.0,4.0,95,0.00,,,0.00,0.000000,,2013-02-15 09:51:00,
2013-02-15 03:21:00,47.0,46.0,-100.00,NNE,13,0.0,4.0,95,0.00,,,0.00,0.000000,,2013-02-15 10:21:00,
2013-02-15 03:31:00,47.0,46.0,-100.00,NNE,13,0.0,4.0,95,0.00,,,0.00,0.000000,,2013-02-15 10:31:00,
2013-02-15 03:42:00,47.0,46.0,-100.00,NNE,13,0.0,4.0,95,0.00,,,0.00,0.000000,,2013-02-15 10:42:00,
2013-02-15 03:51:00,47.0,46.0,-100.00,NNE,13,0.0,4.0,95,0.00,,,0.00,0.000000,,2013-02-15 10:51:00,
2013-02-15 04:11:00,47.0,45.0,-100.00,North,6,0.0,5.0,93,0.00,,,0.00,0.000000,,2013-02-15 11:11:00,
2013-02-15 04:23:00,47.0,45.0,-100.00,North,6,0.0,5.0,93,0.00,,,0.00,0.000000,,2013-02-15 11:23:00,
2013-02-15 04:32:00,47.0,45.0,-100.00,North,6,0.0,5.0,93,0.00,,,0.00,0.000000,,2013-02-15 11:32:00,
2013-02-15 04:42:00,47.0,45.0,-100.00,North,6,0.0,5.0,93,0.00,,,0.00,0.000000,,2013-02-15 11:42:00,
2013-02-15 04:52:00,47.0,45.0,-100.00,North,6,0.0,5.0,93,0.00,,,0.00,0.000000,,2013-02-15 11:52:00,
2013-02-15 05:21:00,45.0,43.0,-100.00,NNE,31,3.0,5.0,91,0.00,,,0.00,0.000000,,2013-02-15 12:21:00,
2013-02-15 05:32:00,45.0,43.0,-100.00,NNE,31,3.0,5.0,91,0.00,,,0.00,0.000000,,2013-02-15 12:32:00,
2013-02-15 05:42:00,45.0,43.0,-100.00,NNE,31,3.0,5.0,91,0.00,,,0.00,0.000000,,2013-02-15 12:42:00,
2013-02-15 05:52:00,45.0,43.0,-100.00,NNE,31,3.0,5.0,91,0.00,,,0.00,0.000000,,2013-02-15 12:52:00,
2013-02-15 06:11:00,44.0,42.0,-100.00,NE,34,2.0,4.0,92,0.00,,,0.00,1.000000,,2013-02-15 13:11:00,
2013-02-15 06:22:00,44.0,42.0,-100.00,NE,34,2.0,4.0,92,0.00,,,0.00,1.000000,,2013-02-15 13:22:00,
2013-02-15 06:32:00,44.0,42.0,-100.00,NE,34,2.0,4.0,92,0.00,,,0.00,1.000000,,2013-02-15 13:32:00,
2013-02-15 06:42:00,44.0,42.0,-100.00,NE,34,2.0,4.0,92,0.00,,,0.00,1.000000,,2013-02-15 13:42:00,
2013-02-15 06:52:00,44.0,42.0,-100.00,NE,34,2.0,4.0,92,0.00,,,0.00,1.000000,,2013-02-15 13:52:00,
2013-02-15 07:21:00,48.0,45.0,-100.00,NNE,29,4.0,6.0,90,0.00,,,0.00,86.000000,,2013-02-15 14:21:00,
2013-02-15 07:32:00,48.0,45.0,-100.00,NNE,29,4.0,6.0,90,0.00,,,0.00,86.000000,,2013-02-15 14:32:00,
2013-02-15 07:42:00,48.0,45.0,-100.00,NNE,29,4.0,6.0,90,0.00,,,0.00,86.000000,,2013-02-15 14:42:00,
2013-02-15 07:52:00,48.0,45.0,-100.00,NNE,29,4.0,6.0,90,0.00,,,0.00,86.000000,,2013-02-15 14:52:00,
2013-02-15 08:21:00,53.0,48.0,-100.00,North,5,5.0,7.0,84,0.00,,,0.00,328.000000,,2013-02-15 15:21:00,
2013-02-15 08:32:00,53.0,48.0,-100.00,North,5,5.0,7.0,84,0.00,,,0.00,328.000000,,2013-02-15 15:32:00,
2013-02-15 08:42:00,53.0,48.0,-100.00,North,5,5.0,7.0,84,0.00,,,0.00,328.000000,,2013-02-15 15:42:00,
2013-02-15 08:51:00,53.0,48.0,-100.00,North,5,5.0,7.0,84,0.00,,,0.00,328.000000,,2013-02-15 15:51:00,
2013-02-15 09:22:00,58.0,49.0,-100.00,North,359,5.0,8.0,72,0.00,,,0.00,549.000000,,2013-02-15 16:22:00,
2013-02-15 09:32:00,58.0,49.0,-100.00,North,359,5.0,8.0,72,0.00,,,0.00,549.000000,,2013-02-15 16:32:00,
2013-02-15 09:42:00,58.0,49.0,-100.00,North,359,5.0,8.0,72,0.00,,,0.00,549.000000,,2013-02-15 16:42:00,
2013-02-15 09:51:00,58.0,49.0,-100.00,North,359,5.0,8.0,72,0.00,,,0.00,549.000000,,2013-02-15 16:51:00,
2013-02-15 10:11:00,61.0,46.0,-100.00,North,8,6.0,10.0,58,0.00,,,0.00,729.000000,,2013-02-15 17:11:00,
2013-02-15 10:21:00,61.0,46.0,-100.00,North,8,6.0,10.0,58,0.00,,,0.00,729.000000,,2013-02-15 17:21:00,
2013-02-15 10:32:00,61.0,46.0,-100.00,North,8,6.0,10.0,58,0.00,,,0.00,729.000000,,2013-02-15 17:32:00,
2013-02-15 10:42:00,61.0,46.0,-100.00,North,8,6.0,10.0,58,0.00,,,0.00,729.000000,,2013-02-15 17:42:00,
2013-02-15 10:52:00,61.0,46.0,-100.00,North,8,6.0,10.0,58,0.00,,,0.00,729.000000,,2013-02-15 17:52:00,
2013-02-15 11:11:00,63.0,44.0,-100.00,NNW,342,7.0,11.0,50,0.00,,,0.00,836.000000,,2013-02-15 18:11:00,
2013-02-15 11:21:00,63.0,44.0,-100.00,NNW,342,7.0,11.0,50,0.00,,,0.00,836.000000,,2013-02-15 18:21:00,
2013-02-15 11:32:00,63.0,44.0,-100.00,NNW,342,7.0,11.0,50,0.00,,,0.00,836.000000,,2013-02-15 18:32:00,
2013-02-15 11:42:00,63.0,44.0,-100.00,NNW,342,7.0,11.0,50,0.00,,,0.00,836.000000,,2013-02-15 18:42:00,
2013-02-15 11:52:00,63.0,44.0,-100.00,NNW,342,7.0,11.0,50,0.00,,,0.00,836.000000,,2013-02-15 18:52:00,
2013-02-15 12:22:00,64.0,43.0,-100.00,North,349,7.0,12.0,46,0.00,,,0.00,824.000000,,2013-02-15 19:22:00,
2013-02-15 12:32:00,64.0,43.0,-100.00,North,349,7.0,12.0,46,0.00,,,0.00,824.000000,,2013-02-15 19:32:00,
2013-02-15 12:42:00,64.0,43.0,-100.00,North,349,7.0,12.0,46,0.00,,,0.00,824.000000,,2013-02-15 19:42:00,
2013-02-15 12:52:00,64.0,43.0,-100.00,North,349,7.0,12.0,46,0.00,,,0.00,824.000000,,2013-02-15 19:52:00,
2013-02-15 13:21:00,65.0,43.0,-100.00,NW,323,6.0,13.0,44,0.00,,,0.00,798.000000,,2013-02-15 20:21:00,
2013-02-15 13:32:00,65.0,43.0,-100.00,NW,323,6.0,13.0,44,0.00,,,0.00,798.000000,,2013-02-15 20:32:00,
2013-02-15 13:42:00,65.0,43.0,-100.00,NW,323,6.0,13.0,44,0.00,,,0.00,798.000000,,2013-02-15 20:42:00,
2013-02-15 13:52:00,65.0,43.0,-100.00,NW,323,6.0,13.0,44,0.00,,,0.00,798.000000,,2013-02-15 20:52:00,
2013-02-15 14:11:00,66.0,42.0,-100.00,North,11,5.0,12.0,41,0.00,,,0.00,724.000000,,2013-02-15 21:11:00,
2013-02-15 14:21:00,66.0,42.0,-100.00,North,11,5.0,12.0,41,0.00,,,0.00,724.000000,,2013-02-15 21:21:00,
2013-02-15 14:32:00,66.0,42.0,-100.00,North,11,5.0,12.0,41,0.00,,,0.00,724.000000,,2013-02-15 21:32:00,
2013-02-15 14:42:00,66.0,42.0,-100.00,North,11,5.0,12.0,41,0.00,,,0.00,724.000000,,2013-02-15 21:42:00,
2013-02-15 14:51:00,66.0,42.0,-100.00,North,11,5.0,12.0,41,0.00,,,0.00,724.000000,,2013-02-15 21:51:00,
2013-02-15 15:22:00,65.0,39.0,-100.00,North,353,6.0,11.0,39,0.00,,,0.00,514.000000,,2013-02-15 22:22:00,
2013-02-15 15:32:00,65.0,39.0,-100.00,North,353,6.0,11.0,39,0.00,,,0.00,514.000000,,2013-02-15 22:32:00,
2013-02-15 15:41:00,65.0,39.0,-100.00,North,353,6.0,11.0,39,0.00,,,0.00,514.000000,,2013-02-15 22:41:00,
2013-02-15 15:51:00,65.0,39.0,-100.00,North,353,6.0,11.0,39,0.00,,,0.00,514.000000,,2013-02-15 22:51:00,
2013-02-15 16:21:00,65.0,40.0,-100.00,ESE,117,5.0,11.0,40,0.00,,,0.00,281.000000,,2013-02-15 23:21:00,
2013-02-15 16:32:00,65.0,40.0,-100.00,ESE,117,5.0,11.0,40,0.00,,,0.00,281.000000,,2013-02-15 23:32:00,
2013-02-15 16:42:00,65.0,40.0,-100.00,ESE,117,5.0,11.0,40,0.00,,,0.00,281.000000,,2013-02-15 23:42:00,
2013-02-15 16:52:00,65.0,40.0,-100.00,ESE,117,5.0,11.0,40,0.00,,,0.00,281.000000,,2013-02-15 23:52:00,
2013-02-15 17:11:00,63.0,41.0,-100.00,WSW,239,2.0,5.0,44,0.00,,,0.00,104.000000,,2013-02-16 00:11:00,
2013-02-15 17:21:00,63.0,41.0,-100.00,WSW,239,2.0,5.0,44,0.00,,,0.00,104.000000,,2013-02-16 00:21:00,
2013-02-15 17:32:00,63.0,41.0,-100.00,WSW,239,2.0,5.0,44,0.00,,,0.00,104.000000,,2013-02-16 00:32:00,
2013-02-15 17:41:00,63.0,41.0,-100.00,WSW,239,2.0,5.0,44,0.00,,,0.00,104.000000,,2013-02-16 00:41:00,
2013-02-15 17:51:00,63.0,41.0,-100.00,WSW,239,2.0,5.0,44,0.00,,,0.00,104.000000,,2013-02-16 00:51:00,
2013-02-15 18:21:00,58.0,42.0,-100.00,North,2,8.0,11.0,56,0.00,,,0.00,1.000000,,2013-02-16 01:21:00,
2013-02-15 18:32:00,58.0,42.0,-100.00,North,2,8.0,11.0,56,0.00,,,0.00,1.000000,,2013-02-16 01:32:00,
2013-02-15 18:42:00,58.0,42.0,-100.00,North,2,8.0,11.0,56,0.00,,,0.00,1.000000,,2013-02-16 01:42:00,
2013-02-15 18:51:00,58.0,42.0,-100.00,North,2,8.0,11.0,56,0.00,,,0.00,1.000000,,2013-02-16 01:51:00,
2013-02-15 19:21:00,55.0,41.0,-100.00,NNE,12,13.0,23.0,60,0.00,,,0.00,0.000000,,2013-02-16 02:21:00,
2013-02-15 19:32:00,55.0,41.0,-100.00,NNE,12,13.0,23.0,60,0.00,,,0.00,0.000000,,2013-02-16 02:32:00,
2013-02-15 19:42:00,55.0,41.0,-100.00,NNE,12,13.0,23.0,60,0.00,,,0.00,0.000000,,2013-02-16 02:42:00,
2013-02-15 19:52:00,55.0,41.0,-100.00,NNE,12,13.0,23.0,60,0.00,,,0.00,0.000000,,2013-02-16 02:52:00,
2013-02-15 20:21:00,53.0,40.0,-100.00,NNE,15,14.0,22.0,62,0.00,,,0.00,0.000000,,2013-02-16 03:21:00,
2013-02-15 20:32:00,53.0,40.0,-100.00,NNE,15,14.0,22.0,62,0.00,,,0.00,0.000000,,2013-02-16 03:32:00,
2013-02-15 20:42:00,53.0,40.0,-100.00,NNE,15,14.0,22.0,62,0.00,,,0.00,0.000000,,2013-02-16 03:42:00,
2013-02-15 20:52:00,53.0,40.0,-100.00,NNE,15,14.0,22.0,62,0.00,,,0.00,0.000000,,2013-02-16 03:52:00,
2013-02-15 21:11:00,52.0,40.0,-100.00,NNE,20,9.0,22.0,63,0.00,,,0.00,0.000000,,2013-02-16 04:11:00,
2013-02-15 21:21:00,52.0,40.0,-100.00,NNE,20,9.0,22.0,63,0.00,,,0.00,0.000000,,2013-02-16 04:21:00,
2013-02-15 21:32:00,52.0,40.0,-100.00,NNE,20,9.0,22.0,63,0.00,,,0.00,0.000000,,2013-02-16 04:32:00,
2013-02-15 21:41:00,52.0,40.0,-100.00,NNE,20,9.0,22.0,63,0.00,,,0.00,0.000000,,2013-02-16 04:41:00,
2013-02-15 21:51:00,52.0,40.0,-100.00,NNE,20,9.0,22.0,63,0.00,,,0.00,0.000000,,2013-02-16 04:51:00,
2013-02-15 22:22:00,51.0,40.0,-100.00,North,5,10.0,18.0,65,0.00,,,0.00,0.000000,,2013-02-16 05:22:00,
2013-02-15 22:32:00,51.0,40.0,-100.00,North,5,10.0,18.0,65,0.00,,,0.00,0.000000,,2013-02-16 05:32:00,
2013-02-15 22:42:00,51.0,40.0,-100.00,North,5,10.0,18.0,65,0.00,,,0.00,0.000000,,2013-02-16 05:42:00,
2013-02-15 22:52:00,51.0,40.0,-100.00,North,5,10.0,18.0,65,0.00,,,0.00,0.000000,,2013-02-16 05:52:00,
2013-02-15 23:11:00,48.0,42.0,-100.00,North,354,10.0,17.0,79,0.02,,,0.02,0.000000,,2013-02-16 06:11:00,
2013-02-15 23:21:00,48.0,42.0,-100.00,North,354,10.0,17.0,79,0.02,,,0.02,0.000000,,2013-02-16 06:21:00,
2013-02-15 23:32:00,48.0,42.0,-100.00,North,354,10.0,17.0,79,0.02,,,0.02,0.000000,,2013-02-16 06:32:00,
2013-02-15 23:42:00,48.0,42.0,-100.00,North,354,10.0,17.0,79,0.02,,,0.02,0.000000,,2013-02-16 06:42:00,
2013-02-15 23:51:00,48.0,42.0,-100.00,North,354,10.0,17.0,79,0.02,,,0.02,0.000000,,2013-02-16 06:51:00,